Theta_e
330 329 328 326 327 320 317 315 313 309 301 301 301 300 300 300 300 300 300 299 298 301 313 314 316 316 317 317 319 318 317 316 316 316 317 318 318 318 319 320 320 321 322
329 328 327 326 326 321 316 315 313 309 302 300 301 300 299 299 299 299 299 300 299 302 311 314 315 317 316 318 319 319 316 314 314 313 314 315 316 316 317 316 315 316 318
330 329 327 326 324 323 318 315 314 311 306 300 300 299 299 298 298 298 299 299 299 304 308 312 314 316 315 321 320 318 316 312 313 311 311 314 313 314 313 312 313 313 315
329 329 328 326 324 323 319 315 314 312 307 301 299 298 298 298 298 298 298 299 300 301 305 307 308 312 315 318 317 316 315 312 312 310 311 313 312 312 311 311 312 312 312
327 328 328 327 325 322 318 315 314 312 308 303 299 298 297 297 297 297 298 298 300 301 303 304 308 314 315 315 315 315 314 312 311 310 311 310 310 310 309 309 310 310 311
326 328 329 329 324 320 317 315 314 312 309 307 300 298 297 296 296 297 297 297 299 301 301 302 306 312 313 313 314 315 314 311 310 309 308 308 307 308 308 308 308 308 309
324 325 325 324 321 317 317 315 313 310 307 304 298 296 296 296 296 296 296 296 297 298 299 298 302 309 311 311 311 314 314 311 309 308 306 306 306 306 306 306 306 306 307
318 321 321 321 319 317 314 313 312 308 305 301 297 294 293 295 296 297 296 296 296 296 296 296 296 300 306 309 310 312 312 311 310 307 306 305 304 304 305 305 305 305 306
310 313 316 316 312 312 312 311 310 307 304 301 298 297 291 292 292 295 296 296 295 295 295 294 294 295 299 303 305 308 310 310 310 307 305 303 303 303 303 304 304 305 305
303 304 306 308 308 308 307 308 308 305 302 301 298 297 296 296 292 292 294 294 295 295 295 294 294 294 294 296 297 301 307 309 309 306 304 303 302 302 303 303 303 303 304
298 299 300 302 302 302 303 303 303 304 302 299 299 298 296 295 295 292 292 292 293 295 295 295 294 294 293 293 295 297 303 308 307 304 301 299 300 301 302 302 302 302 302
293 294 295 295 297 299 299 299 301 300 300 300 298 297 297 296 294 294 290 291 291 296 295 294 294 293 293 292 293 296 301 305 305 303 301 299 295 299 300 301 301 301 301
285 285 287 291 293 293 294 296 297 299 299 298 297 297 296 295 295 296 295 291 289 294 294 294 294 293 293 292 291 294 298 301 303 302 301 299 293 297 298 300 300 300 299
284 284 285 285 285 287 291 292 293 295 296 297 297 297 296 295 295 294 294 294 291 289 291 293 295 294 293 292 292 291 294 296 298 299 298 296 290 294 296 297 298 298 297
284 284 284 285 285 285 285 285 288 291 292 293 293 294 295 295 295 295 294 294 294 294 294 293 293 296 294 293 292 291 291 293 296 296 295 292 290 293 295 295 296 296 296
284 284 284 284 284 284 285 285 284 284 285 288 290 291 292 293 294 294 294 293 293 293 293 295 295 295 295 294 293 292 291 292 294 294 293 290 290 292 294 294 295 295 295
283 283 283 283 283 283 283 283 284 284 284 284 284 286 289 290 291 293 292 292 292 292 292 294 294 294 294 293 293 292 291 291 292 293 292 289 290 292 293 293 294 294 294
282 282 282 282 282 282 282 282 282 282 282 283 284 284 285 285 288 290 290 291 290 291 291 292 293 294 293 293 293 293 292 291 291 292 291 288 289 291 292 292 293 293 293
281 281 281 280 280 280 280 280 280 280 281 282 282 283 284 284 285 286 288 289 289 290 290 290 291 292 293 291 290 290 290 290 290 291 291 290 287 290 291 291 292 292 291
280 279 279 279 279 279 279 279 279 280 281 281 282 283 283 283 284 284 286 287 288 289 289 289 289 290 290 290 289 288 287 287 288 289 290 290 288 288 290 290 291 291 290
278 278 277 277 277 277 278 278 279 280 280 280 280 281 282 283 283 284 285 286 287 288 289 289 289 289 287 287 288 288 287 286 285 286 286 287 286 287 287 289 289 290 289
275 275 275 275 275 275 277 278 279 279 279 279 279 279 280 280 282 284 285 286 287 288 288 289 289 289 289 287 288 288 287 286 286 285 283 283 285 285 285 286 288 288 288
273 272 272 272 272 272 273 274 275 276 277 277 277 278 278 279 280 281 282 283 284 285 288 288 289 289 289 290 288 287 286 287 288 288 285 284 283 284 285 285 286 286 288
270 269 269 269 269 269 270 271 272 272 272 273 274 275 277 277 277 278 279 280 282 283 284 286 288 289 289 289 289 288 287 287 288 288 287 285 285 283 283 284 285 286 288
267 267 267 267 266 266 267 268 270 270 270 271 271 272 273 273 274 276 277 278 279 280 283 284 285 286 288 289 289 288 286 286 286 286 283 285 285 283 282 282 283 285 287
265 265 265 265 265 265 265 267 269 269 270 270 271 271 272 273 274 275 276 277 278 279 280 282 284 285 286 288 289 290 287 287 287 287 284 283 283 282 282 281 281 282 286
Wind_Speed
28 27 24 23 21 22 22 22 20 18 17 15 14 13 12 11 9 8 6 6 7 7 8 8 7 6 6 7 8 8 8 5 5 3 4 5 6 7 9 10 9 7 5
28 28 28 26 23 23 23 23 22 21 19 17 15 14 14 13 12 11 9 8 8 9 9 8 7 8 7 8 10 10 7 6 5 4 4 6 7 7 9 7 5 5 6
30 30 28 27 26 24 23 23 22 21 20 19 18 17 16 15 14 13 12 10 10 11 12 11 9 9 8 8 12 10 9 6 6 4 4 5 6 7 7 3 4 5 5
27 30 32 30 29 28 25 24 24 23 22 21 20 19 18 17 16 15 15 14 13 12 13 11 11 12 12 13 11 9 9 5 7 5 5 8 7 7 6 6 6 5 5
24 25 30 31 28 28 27 26 26 25 24 23 21 20 19 18 17 17 18 17 15 14 14 13 13 15 18 16 14 14 12 9 8 7 8 7 7 8 7 5 5 5 5
17 21 25 27 27 27 26 26 27 27 27 24 20 19 19 18 19 21 20 19 18 17 16 16 17 19 19 19 12 14 14 12 10 10 8 7 7 7 8 7 6 6 6
10 14 18 21 24 25 26 27 28 28 26 21 17 16 18 20 23 23 21 22 23 21 19 19 20 22 22 20 18 17 16 13 13 12 11 9 9 8 9 8 7 7 7
6 12 14 17 21 23 25 27 29 27 26 23 9 2 2 10 27 29 26 26 26 24 23 22 22 23 24 24 24 21 19 18 17 14 13 12 12 11 10 10 10 9 8
11 9 11 14 16 20 24 26 28 30 27 25 28 10 0 5 3 15 32 30 28 27 26 24 24 25 26 26 26 26 23 22 21 17 15 13 13 12 11 11 10 9 9
15 14 10 10 13 14 17 22 26 30 30 26 28 32 19 5 3 4 10 24 29 29 29 28 28 27 27 27 27 28 28 26 25 21 17 15 15 14 13 12 11 10 9
19 18 16 14 12 12 14 18 22 27 30 32 32 22 32 31 11 4 4 5 20 34 34 34 31 30 30 30 29 28 29 31 32 27 20 17 16 15 15 14 13 12 11
27 24 22 19 17 15 16 16 16 21 27 30 34 33 31 14 14 13 4 9 10 16 32 36 35 35 34 33 32 31 31 33 34 32 27 22 20 18 18 17 16 15 13
31 30 28 26 23 19 18 18 18 17 19 26 31 33 35 35 32 27 20 6 6 13 13 26 39 39 36 36 36 35 35 35 35 34 32 28 25 20 19 19 18 17 15
26 26 26 25 24 24 22 20 19 19 18 19 23 27 33 30 31 33 28 17 6 5 12 15 19 39 40 40 40 38 38 38 38 36 34 30 27 23 22 21 19 18 17
24 24 25 26 26 24 24 23 21 21 21 22 23 24 26 31 32 34 32 33 24 13 14 18 20 26 37 43 44 42 41 41 39 37 34 30 27 25 24 23 22 20 19
26 27 26 27 27 26 25 26 26 25 23 22 23 24 25 26 28 30 32 29 34 27 15 25 30 33 34 38 45 46 45 44 41 40 37 32 30 27 26 25 23 22 21
23 26 27 28 30 32 30 28 27 28 30 31 28 25 24 24 27 28 28 30 27 26 19 30 32 33 35 36 37 44 47 47 45 43 41 38 32 30 29 28 26 25 23
25 27 30 31 32 34 34 34 36 35 32 31 33 34 31 26 26 27 29 30 28 29 29 26 27 33 33 36 39 41 45 49 48 46 43 39 34 32 30 29 28 27 26
30 32 33 35 38 39 39 39 38 39 38 35 34 33 34 33 31 28 28 29 28 26 28 30 29 31 33 33 34 39 43 45 47 47 45 43 41 35 32 32 31 30 29
34 35 35 35 34 35 34 34 33 34 35 35 33 34 34 35 36 33 29 29 27 26 25 26 28 27 33 34 32 29 29 39 43 47 48 46 42 37 36 35 34 33 33
37 36 33 32 30 30 28 27 28 30 32 34 34 33 32 33 36 34 31 28 26 25 23 23 24 23 24 20 23 24 29 26 34 38 43 45 43 43 44 40 38 37 36
38 37 35 33 36 33 29 30 30 31 32 33 34 34 33 35 34 33 33 33 33 30 28 25 25 24 30 26 28 27 25 20 8 34 32 34 45 43 47 47 44 43 40
38 35 34 32 36 36 34 35 34 35 35 35 36 36 36 35 33 31 31 34 36 37 40 37 33 34 31 28 26 28 27 31 30 21 34 32 38 46 44 45 47 46 43
32 32 32 32 34 33 33 35 35 36 36 37 36 36 35 36 34 33 35 36 37 37 39 39 41 45 37 34 32 35 33 36 33 32 34 17 32 41 38 45 49 46 43
32 33 30 31 32 33 32 32 32 32 32 34 34 35 35 38 39 39 41 40 39 41 40 39 44 46 42 41 37 27 28 23 19 27 32 22 22 25 32 39 44 44 44
30 30 31 30 32 34 32 30 29 30 31 31 31 32 32 35 37 38 39 40 39 44 37 38 39 41 44 43 42 41 35 31 28 16 28 28 22 19 6 27 34 41 42
Wind_Direction
235 238 244 244 247 236 232 231 231 226 217 216 215 217 219 224 229 237 244 249 226 213 205 207 208 206 200 194 191 186 170 171 182 164 153 159 161 168 192 193 198 193 185
236 240 245 247 245 241 239 239 236 231 227 227 225 225 226 227 230 233 233 237 225 212 200 207 210 204 206 206 200 184 187 184 188 197 183 175 165 188 194 192 184 186 186
237 238 243 247 247 244 240 240 238 238 237 233 230 228 227 228 229 230 228 227 220 207 202 194 205 214 214 194 196 209 196 206 194 216 205 180 186 192 182 168 165 169 174
250 249 249 248 248 238 240 238 238 236 236 237 236 232 231 230 232 233 234 232 231 222 216 220 220 211 212 213 201 212 199 200 207 223 187 182 188 199 194 186 179 176 164
254 252 250 246 241 239 237 238 235 234 237 238 238 237 236 236 236 236 238 236 233 229 226 222 214 203 202 198 210 217 212 211 214 212 202 199 196 200 197 194 181 179 176
263 253 250 245 236 234 237 236 236 236 236 238 238 242 244 243 240 239 238 237 238 236 233 228 218 214 211 215 213 205 207 217 217 213 208 205 204 199 197 201 196 188 193
276 256 246 242 240 239 242 238 231 231 235 236 224 237 242 243 244 242 239 236 236 238 237 233 228 224 221 218 209 211 216 221 215 207 214 211 209 211 207 205 207 204 199
336 265 256 260 255 250 245 236 230 229 235 229 205 183 291 251 243 240 237 236 236 237 237 233 231 230 229 225 217 215 219 217 212 218 217 214 215 215 213 208 206 205 200
23 358 299 281 264 250 249 251 243 238 238 227 219 211 82 245 319 232 233 234 236 236 237 236 234 232 231 230 226 224 214 216 212 215 212 216 215 213 211 208 208 204 198
23 17 9 355 325 293 271 265 259 250 247 242 231 229 238 251 223 318 249 239 236 239 240 239 237 235 234 233 230 226 220 217 210 207 211 211 214 212 210 210 208 204 201
24 19 7 358 351 344 322 290 271 265 259 252 246 245 240 243 247 212 284 285 238 241 243 242 241 238 234 233 231 228 225 218 215 213 226 233 219 215 212 209 207 205 202
28 20 8 360 352 337 333 325 307 285 275 270 261 256 249 236 229 226 231 256 248 265 248 243 240 239 236 234 230 227 225 224 226 233 242 249 239 218 212 209 205 204 201
24 21 19 15 6 350 335 326 317 305 296 282 275 269 263 258 255 256 240 246 256 263 263 251 240 240 238 237 234 229 227 228 233 240 245 248 241 223 218 211 206 204 201
18 12 9 11 12 10 3 347 328 318 305 296 292 285 276 266 266 259 253 248 267 269 247 245 253 242 240 239 239 235 232 232 234 239 244 243 234 221 216 213 212 208 202
6 5 360 355 357 359 359 357 351 338 321 310 301 292 285 284 276 269 263 257 255 266 263 258 245 257 247 240 241 238 235 234 234 236 239 232 229 220 219 215 211 208 206
354 351 351 348 345 345 344 343 340 339 332 324 315 305 295 287 286 283 276 266 262 258 270 261 258 260 259 247 243 242 240 238 236 236 236 229 226 219 217 217 214 211 208
346 341 338 339 336 334 335 334 329 326 325 321 318 315 308 302 291 284 284 283 265 259 261 271 268 264 255 248 245 244 240 240 237 237 236 234 225 222 219 216 215 213 210
337 332 330 329 326 323 323 324 322 319 315 312 312 311 308 309 302 295 287 278 274 270 262 270 265 260 254 249 248 245 242 240 237 236 234 232 227 225 221 220 217 214 211
330 326 324 323 322 319 317 316 315 313 311 308 303 299 299 302 298 297 294 285 276 267 262 262 266 261 259 248 239 240 240 240 238 237 236 234 231 226 221 221 219 217 213
326 324 320 316 313 310 309 309 311 310 308 303 300 296 293 291 290 291 286 280 277 269 264 258 262 260 252 245 238 225 226 232 234 236 236 234 230 224 222 221 220 218 219
319 317 314 310 307 303 302 304 304 303 299 296 293 289 289 286 287 284 278 273 268 262 258 257 260 255 240 230 217 216 222 226 231 230 229 225 223 225 225 221 221 219 220
314 313 311 309 307 304 305 303 299 296 291 289 287 288 287 286 283 279 277 274 267 262 258 251 251 249 250 234 239 221 210 205 229 231 220 222 221 224 227 224 220 221 217
314 311 309 308 304 304 307 305 302 299 294 290 287 285 285 282 282 281 280 277 272 266 258 253 254 248 249 244 231 220 214 214 228 233 210 224 220 225 225 225 225 222 218
309 307 305 303 302 303 307 305 302 297 292 288 286 285 284 282 280 281 284 282 274 268 262 256 250 255 251 249 244 237 225 227 233 230 219 211 214 225 221 225 226 222 216
307 305 304 303 301 301 305 303 301 297 291 288 287 285 283 283 282 280 279 277 276 273 267 262 257 256 254 249 242 239 228 217 229 226 211 221 221 216 214 220 224 220 214
299 300 298 298 298 298 303 303 300 295 290 289 289 288 287 285 285 282 276 272 272 268 269 266 261 258 255 251 245 232 222 221 225 236 221 203 213 193 203 223 220 218 213